This demonstration page uses our WeatherBlox Daily Observations layout. Learn more.

Left ArrowRight Arrow

Hourly Observations for May 3, 2015

Temp ( °F °C ) Dew Point ( °F °C ) Humidity (%) Winds ( mph kmh ) Pressure ( in mb ) Visibility ( mi km ) Precip ( " mm )
12:53 am 00:53 Clear 50 10 48 8.9 93 93 Calm 30.07 1018 10 16 0.00 0.00
1:53 am 01:53 Clear 50 10 47 8.3 89 89 Calm 30.07 1018 9 14 0.00 0.00
2:53 am 02:53 Clear 49 9.4 46 7.8 90 90 Calm 30.07 1018 8 13 0.00 0.00
3:53 am 03:53 Clear with Mist and Fog 47 8.3 46 7.8 97 97 Calm 30.08 1019 6 10 0.00 0.00
4:53 am 04:53 Clear with Mist and Fog 47 8.3 45 7.2 93 93 Calm 30.09 1019 5 8 0.00 0.00
5:53 am 05:53 Clear with Mist and Fog 46 7.8 45 7.2 96 96 Calm 30.09 1019 6 10 0.00 0.00
6:53 am 06:53 Sunny with Mist and Fog 47 8.3 45 7.2 93 93 Calm 30.11 1020 6 10 0.00 0.00
7:53 am 07:53 Sunny with Mist and Fog 51 10.6 49 9.4 92 92 Calm 30.13 1020 6 10 0.00 0.00
8:53 am 08:53 Sunny with Mist and Fog 55 12.8 51 10.6 87 87 Calm 30.14 1021 6 10 0.00 0.00
9:53 am 09:53 Sunny 62 16.7 51 10.6 67 67 ESE 3 6 30.14 1021 8 13 0.00 0.00
10:53 am 10:53 Sunny 71 21.7 52 11.1 51 51 Calm 30.13 1020 10 16 0.00 0.00
11:53 am 11:53 Sunny 74 23.3 49 9.4 41 41 W 7 11 30.13 1020 10 16 0.00 0.00
12:53 pm 12:53 Sunny 76 24.4 46 7.8 35 35 VRB 6 9 30.12 1020 10 16 0.00 0.00
1:53 pm 13:53 Sunny 76 24.4 45 7.2 33 33 WSW 6 9 30.11 1020 10 16 0.00 0.00
2:53 pm 14:53 Partly Cloudy 78 25.6 47 8.3 33 33 WSW 9 15 30.09 1019 10 16 0.00 0.00
3:53 pm 15:53 Sunny 78 25.6 46 7.8 32 32 undefined N/A 30.08 1019 10 16 0.00 0.00
4:53 pm 16:53 Sunny 78 25.6 46 7.8 32 32 SSW 9 15 30.06 1018 10 16 0.00 0.00
5:53 pm 17:53 Sunny 78 25.6 47 8.3 33 33 SW 5 7 30.06 1018 10 16 0.00 0.00
6:53 pm 18:53 Sunny 78 25.6 45 7.2 31 31 SW 6 9 30.06 1018 10 16 0.00 0.00
7:53 pm 19:53 Sunny 76 24.4 46 7.8 35 35 SSW 5 7 30.06 1018 10 16 0.00 0.00
8:53 pm 20:53 Clear 69 20.6 48 8.9 47 47 Calm 30.07 1018 10 16 0.00 0.00
9:53 pm 21:53 Clear 60 15.6 51 10.6 72 72 Calm 30.09 1019 10 16 0.00 0.00
10:53 pm 22:53 Clear 58 14.4 50 10 75 75 ENE 3 6 30.09 1019 10 16 0.00 0.00
11:53 pm 23:53 Clear 56 13.3 50 10 81 81 Calm 30.08 1019 10 16 0.00 0.00

Powered by AerisWeather